Location: Bow
(51.5261°N, 0.0167°W)
Time: 03:30:46
(UTC+00:00)

OBJECT-B - Pass Details

Date: 18 September 2020
Orbit: 421 x 433 km, 97.0° (Epoch: 09 October)

Event Time Altitude Azimuth Distance (km) Brightness Sun altitude
Exits shadow 20:34:37 30° 237° (WSW) 787 2.3 -22.4°
Maximum altitude 20:35:16 33° 263° (W) 734 2.3 -22.5°
Drops below altitude 10° 20:38:15 10° 330° (NNW) 1,524 4.5 -22.9°
Sets 20:40:24 0° 340° (NNW) 2,397 5.5 -23.2°
